Hlavní strana
METAR-TAF:

METAR-TAF

Letiště :

Pell City, Alabama, Spojené státy americké

zeměpisná šířka: 33-33-32N, zeměpisná délka: 086-14-57W, výška: 148 m

Aktuální stav počasí

Zpráva byla vytvořena před 34 minutami, v 22:55 UTC
Bezvětří
Teplota 10°C
Vlhkost vzduchu 76%
Tlak 1017 hPa
Viditelnost: 16.1 km
Zataženo ve výšce 6000 ft

METAR: KPLR 262255Z AUTO 00000KT 10SM OVC060 10/06 A3004 RMK A01

Čas: 17:29 (23:29 UTC)


TAF: chybějící

Stav a předpovědi počasí z více než 4 000 letišť (zprávy METAR a TAF).

Červené a žluté tečky na mapě představují dostupné meteorologické stanice.

Když kurzor umístíte na tečku, zobrazí se název stanice.

Pak kliknutím zobrazíte stav a předpověď počasí.

Chcete-li změnit mapu, kliknutím na zelené tlačítko se znaménkem +mapu přiblížíte, kliknutím na zelené tlačítko se znaménkem – mapu oddálíte a kliknutím na zelené šipky přejdete na sousední mapy.


METAR-TAF: